OBJECT N

基本信息
目录编号:
59063
目录名称:
OBJECT N
国际标识:
2024-039N
轨道中心:
EARTH
物体状态:
已陨落(2025-05-06)
发射日期:
2024-02-29 UTC
国别:
(TBD)
轨道信息
数据来源: 国际轨道数据
星历时间: 2025-05-03T12:43:38+0800
半长轴: 6523.096km
偏心率: 0.0010702
轨道倾角: 97.387°
近地点辐角: 236.919°
升交点赤经: 99.937°
平近点角: 123.109°
近地点: 137.979km
远地点: 151.943km
周期: 87.386分钟
每日圈数: 16.478671
详细信息
发射场:
VOSTO
轨道高度:
LEO
数据来源:
AOE Integration Group
参考系:
TEME
时间系统:
UTC
历元类型:
SGP4
2D轨道图
3D轨道图
轨道高度分析图
轨道倾角分析图
轨道综合分析图
查看轨道综合分析图